Weather History for Lincoln, NE

Change the Weather History Date:

Wednesday, February 6, 2013

  Actual Average Record
Temperature  
Mean Temperature 43 °F 26 °F  
Max Temperature 58 °F 38 °F 65 °F (2009)
Min Temperature 27 °F 16 °F -17 °F (1889)
Degree Days  
Heating Degree Days 22 39  
Month to date heating degree days 199 234  
Since 1 July heating degree days 3854 3931  
Cooling Degree Days 0 0  
Month to date cooling degree days 0 0  
Year to date cooling degree days 0 0  
Moisture  
Dew Point 33 °F    
Average Humidity 69    
Maximum Humidity 86    
Minimum Humidity 51    
Precipitation  
Precipitation 0.00 in 0.03 in 0.87 in (2005)
Month to date precipitation T 0.16  
Year to date precipitation 0.73 0.80  
Snow  
Snow 0.00 in 0.20 in - ()
Month to date snowfall T 1.3  
Since 1 July snowfall 11.3 15.4  
Snow Depth 0.00 in    
Sea Level Pressure  
Sea Level Pressure 29.94 in    
Wind  
Wind Speed 8 mph (South)    
Max Wind Speed 23 mph    
Max Gust Speed 30 mph    
Visibility 9 miles    
Events      
T = Trace of Precipitation, MM = Missing Value Source: NWS Daily Summary

Daily Weather History Graph

Daily Weather History Graph

Search for Another Location

Airport:

Trip Planner

Search our weather history database for the weather conditions in past years. The results will help you decide how hot, cold, wet, or windy it might be!

Date:

Astronomy

Feb. 06, 2013 Rise Set
Actual Time 7:31 AM CST 5:51 PM CST
Civil Twilight 7:03 AM CST 6:19 PM CST
Nautical Twilight 6:30 AM CST 6:52 PM CST
Astronomical Twilight 5:58 AM CST 7:24 PM CST
Moon 4:17 AM CST (2/6) 2:09 PM CST (2/6)
Length of Visible Light 11h 16m
Length of Day
10h 19m
Waning Crescent, 17% of the Moon is Illuminated
Feb 6
Waning Crescent
Feb 10
New
Feb 17
First Quarter
Feb 25
Full
Mar 4
Last Quarter

Hourly Weather History & Observations

Time (CST) Temp. Windchill Dew Point Humidity Pressure Visibility Wind Dir Wind Speed Gust Speed Precip Events Conditions
12:54 AM 26.6 °F - 23.0 °F 86% 30.05 in 10.0 mi Calm Calm - N/A   Scattered Clouds
1:54 AM 30.0 °F - 26.1 °F 85% 30.07 in 10.0 mi Calm Calm - N/A   Clear
2:54 AM 34.0 °F 28.0 °F 27.0 °F 75% 30.04 in 10.0 mi SSE 6.9 mph - N/A   Scattered Clouds
3:54 AM 36.0 °F - 28.9 °F 76% 30.03 in 10.0 mi Calm Calm - N/A   Partly Cloudy
4:54 AM 30.9 °F 23.5 °F 27.0 °F 85% 30.03 in 10.0 mi South 8.1 mph - N/A   Scattered Clouds
5:54 AM 32.0 °F 25.6 °F 26.6 °F 80% 29.99 in 10.0 mi SSE 6.9 mph - N/A   Clear
6:54 AM 30.2 °F 22.6 °F 26.6 °F 86% 29.98 in 10.0 mi SSE 8.1 mph - N/A   Clear
7:54 AM 35.1 °F 27.4 °F 28.0 °F 76% 30.01 in 10.0 mi South 10.4 mph - N/A   Clear
8:54 AM 39.0 °F 31.0 °F 28.9 °F 67% 30.00 in 10.0 mi South 13.8 mph 21.9 mph N/A   Clear
9:54 AM 42.1 °F 33.9 °F 28.9 °F 60% 29.99 in 10.0 mi South 17.3 mph - N/A   Scattered Clouds
10:54 AM 44.1 °F 36.2 °F 30.9 °F 60% 29.98 in 10.0 mi South 18.4 mph - N/A   Clear
11:54 AM 48.0 °F - 33.1 °F 56% 29.96 in 10.0 mi South 15.0 mph 23.0 mph N/A   Clear
12:54 PM 51.1 °F - 36.0 °F 56% 29.93 in 10.0 mi SSW 17.3 mph 21.9 mph N/A   Clear
1:54 PM 55.9 °F - 37.9 °F 51% 29.88 in 10.0 mi South 15.0 mph - N/A   Clear
2:54 PM 55.9 °F - 37.9 °F 51% 29.85 in 10.0 mi South 9.2 mph - N/A   Mostly Cloudy
3:54 PM 57.9 °F - 39.0 °F 49% 29.84 in 10.0 mi SSW 12.7 mph - N/A   Clear
4:54 PM 53.1 °F - 39.0 °F 59% 29.84 in 9.0 mi South 9.2 mph - N/A   Partly Cloudy
5:54 PM 52.0 °F - 39.9 °F 63% 29.86 in 9.0 mi West 5.8 mph - N/A   Mostly Cloudy
6:54 PM 41.0 °F 37.1 °F 36.0 °F 82% 29.88 in 8.0 mi North 5.8 mph - N/A   Partly Cloudy
7:54 PM 41.0 °F 37.1 °F 36.0 °F 82% 29.89 in 7.0 mi North 5.8 mph - N/A   Mostly Cloudy
8:54 PM 41.0 °F - 37.0 °F 86% 29.89 in 7.0 mi Calm Calm - N/A   Mostly Cloudy
9:54 PM 41.0 °F 37.1 °F 37.0 °F 86% 29.89 in 7.0 mi North 5.8 mph - N/A   Overcast
10:54 PM 42.1 °F 38.4 °F 37.9 °F 85% 29.90 in 7.0 mi Variable 5.8 mph - N/A   Mostly Cloudy
11:54 PM 39.9 °F - 36.0 °F 86% 29.91 in 7.0 mi Calm Calm - N/A   Mostly Cloudy